Flag for Turkey Weather past 2 weeks in Ankara, Turkey

Now
34 °F

Clear.


Feels Like: 34 °F
Forecast: 51 / 69 °F
Wind: 2 mph from North

Location: Ankara / Esenboga


UV Index: 5 (Moderate)

Visibility: 10 mi


Pressure: 30.07 "Hg

Humidity: 93%

Dew point: 32 °F

Location of AnkaraLocation

Historic Weather in Ankara

°F

Ankara temperature yesterday

Maximum temperature yesterday: 68 °F (at 1:50 PM)
Minimum temperature yesterday: 36 °F (at 6:20 AM)
Average temperature yesterday: 51 °F

Past Weeks' High & Low Weather Summary

 TemperatureHumidityPressure
High72 °F (Apr 17, 4:50 PM)93% (Apr 9, 4:20 AM)30.09 "Hg (Apr 9, 4:20 AM)
Low30 °F (Apr 9, 4:20 AM)14% (Apr 7, 6:20 PM)29.74 "Hg (Apr 18, 11:50 AM)
Average52 °F57%29.94 "Hg
* Reported Apr 5 6:20 AM — Apr 20 6:20 AM, Ankara, Weather by CustomWeather, © 2014

Note: Actual official high and low records may vary slightly from our data, if they occured in-between our weather recording intervals... More about our weather records

Advertising

Historic Weather Conditions — Data for Previous 24 hours

 ConditionsComfort  
Time TempWeatherWind HumidityBarometerVisibility
6:20 AM
Apr 20
34 °FClear.6 mph87%30.07 "Hg10 mi
5:50 AM34 °FClear.7 mph87%30.04 "Hg10 mi
5:20 AM37 °FClear.5 mph87%30.07 "Hg10 mi
4:50 AM37 °FClear.3 mph87%30.07 "Hg10 mi
4:20 AM37 °FClear.2 mph87%30.07 "Hg10 mi
3:50 AM36 °FClear.2 mph93%30.07 "Hg10 mi
3:20 AM37 °FClear.2 mph87%30.04 "Hg10 mi
2:50 AM41 °FClear.5 mph81%30.04 "Hg10 mi
2:20 AM41 °FClear.7 mph81%30.07 "Hg10 mi
1:50 AM41 °FClear.9 mph81%30.07 "Hg10 mi
1:20 AM43 °FClear.7 mph76%30.04 "Hg10 mi
12:50 AM43 °FClear.8 mph76%30.04 "Hg10 mi
12:20 AM43 °FPassing clouds.13 mph76%30.04 "HgN/A
11:50 PM
Apr 19
43 °FPassing clouds.14 mph76%30.04 "HgN/A
11:20 PM43 °FPassing clouds.12 mph76%30.04 "HgN/A
10:50 PM43 °FPassing clouds.13 mph76%30.04 "HgN/A
10:20 PM45 °FPassing clouds.10 mph76%30.04 "HgN/A
9:50 PM45 °FPassing clouds.9 mph76%30.04 "HgN/A
9:20 PM46 °FPassing clouds.13 mph71%30.01 "HgN/A
8:50 PM46 °FPassing clouds.10 mph76%29.98 "HgN/A
8:20 PM46 °FPartly sunny.10 mph76%29.98 "HgN/A
7:50 PM46 °FPartly sunny.14 mph76%29.98 "HgN/A
7:20 PM46 °FPartly sunny.14 mph76%29.98 "HgN/A
6:50 PM46 °FSprinkles. Partly sunny.24 mph82%29.98 "HgN/A
6:20 PM55 °FPartly sunny.18 mph44%29.92 "HgN/A
5:50 PM55 °FPartly sunny.18 mph47%29.86 "HgN/A
5:20 PM55 °FPartly sunny.33 mph47%29.86 "HgN/A
5:04 PM61 °FPartly sunny.37 mph36%29.80 "HgN/A
4:50 PM66 °FPartly sunny.25 mph22%29.80 "HgN/A
4:20 PM68 °FScattered clouds.12 mph26%29.77 "HgN/A
3:50 PM66 °FScattered clouds.12 mph28%29.80 "HgN/A
3:20 PM63 °FPartly sunny.18 mph34%29.83 "HgN/A
3:01 PM61 °FThunderstorms. Partly sunny.28 mph39%29.86 "HgN/A
2:50 PM66 °FScattered clouds.10 mph26%29.83 "HgN/A
2:20 PM68 °FScattered clouds.14 mph24%29.83 "HgN/A
1:50 PM68 °FScattered clouds.13 mph30%29.86 "HgN/A
1:20 PM66 °FScattered clouds.13 mph30%29.89 "HgN/A
12:50 PM66 °FScattered clouds.7 mph30%29.89 "HgN/A
12:20 PM64 °FScattered clouds.7 mph37%29.89 "HgN/A
11:50 AM61 °FScattered clouds.5 mph45%29.92 "HgN/A
11:20 AM63 °FScattered clouds.2 mph42%29.92 "HgN/A
10:50 AM61 °FScattered clouds.3 mph48%29.92 "HgN/A
10:20 AM59 °FScattered clouds.2 mph45%29.92 "HgN/A
9:50 AM55 °FScattered clouds.2 mph51%29.92 "HgN/A
9:20 AM54 °FScattered clouds.3 mph58%29.92 "HgN/A
8:50 AM50 °FScattered clouds.3 mph67%29.92 "HgN/A
8:20 AM46 °FScattered clouds.2 mph71%29.92 "HgN/A
7:50 AM45 °FScattered clouds.1 mph76%29.92 "HgN/A
7:20 AM41 °FPassing clouds.3 mph81%29.92 "HgN/A
Weather by CustomWeather, © 2014

See weather overview